STARLINK-5097 (53995 NORAD) Tracking and Keplerian Element Data

This shows tracking and keplerian element data for the satellite.

Feedback or suggestion? Click here.




ElementValue
Catalog53995
NameSTARLINK-5097
Epoch Orbit765
Epoch Day325.25001157
Epoch Year2022
RAAN223.8906
Inclination53.2162
Eccentricity7.62E-05
Argument of Perigee75.6018
Mean Anonmoly253.0932
Mean Motion15.49890574
Decay Rate0.00028702
L11 53995U 22125AH 22325.25001157 .00028702 00000+0 51170-3 0 9993
L22 53995 53.2162 223.8906 0000762 75.6018 253.0932 15.49890574 7658



Live tracking and technical data element details for STARLINK-5097 (NORAD 53995). STARLINK-5097 can be tracked NOW for your location showing map with azimuth and elevation plus other details from your city location.







IsCatalogInMostPopularTable: catalog: 53995, numindb: 3
Update: records affected: 1



GetName: 53995 STARLINK-5097

Hit Count: updated at: Mon, 28 Nov 2022 22:16:09 GMT